This demonstration page uses our WeatherBlox Daily Observations layout. Learn more.

Left ArrowRight Arrow

39.08367, -84.50855

Hourly Observations for April 17, 2022

Temp ( °F °C ) Dew Point ( °F °C ) Humidity (%) Winds ( mph kmh ) Pressure ( in mb ) Visibility ( mi km ) Precip ( " mm )
12:53 am 00:53 Clear 45 7.2 29 -1.7 54 54 N 14 22 30.18 1022 10 16 0.00 0.00
1:53 am 01:53 Clear 42 5.6 26 -3.3 53 53 N 7 11 30.21 1023 10 16 0.00 0.00
2:53 am 02:53 Clear 38 3.3 27 -2.8 65 65 ENE 3 6 30.21 1023 10 16 0.00 0.00
3:53 am 03:53 Clear 38 3.3 27 -2.8 65 65 NNE 3 6 30.22 1023 10 16 0.00 0.00
4:53 am 04:53 Clear 35 1.7 29 -1.7 78 78 NNE 5 7 30.24 1024 10 16 0.00 0.00
5:53 am 05:53 Clear 35 1.7 26 -3.3 70 70 NNE 8 13 30.26 1025 10 16 0.00 0.00
6:53 am 06:53 Clear 33 0.6 25 -3.9 72 72 NE 7 11 30.28 1026 10 16 0.00 0.00
7:53 am 07:53 Sunny 35 1.7 21 -6.1 57 57 NNE 9 15 30.30 1026 10 16 0.00 0.00
8:53 am 08:53 Sunny 38 3.3 20 -6.7 48 48 ENE 13 20 30.30 1026 10 16 0.00 0.00
9:53 am 09:53 Sunny 40 4.4 20 -6.7 45 45 ENE 14 22 30.31 1027 10 16 0.00 0.00
10:53 am 10:53 Sunny 42 5.6 21 -6.1 43 43 ENE 9 15 30.31 1026 10 16 0.00 0.00
11:53 am 11:53 Sunny 44 6.7 22 -5.6 41 41 NE 10 17 30.30 1026 10 16 0.00 0.00
12:53 pm 12:53 Sunny 47 8.3 24 -4.4 41 41 NE 7 11 30.27 1025 10 16 0.00 0.00
1:53 pm 13:53 Sunny 48 8.9 26 -3.3 42 42 NNE 9 15 30.26 1025 10 16 0.00 0.00
2:53 pm 14:53 Sunny 49 9.4 28 -2.2 44 44 ENE 12 19 30.24 1024 10 16 0.00 0.00
3:53 pm 15:53 Sunny 50 10 27 -2.8 41 41 ENE 9 15 30.22 1024 10 16 0.00 0.00
4:53 pm 16:53 Sunny 50 10 27 -2.8 41 41 ENE 12 19 30.20 1023 10 16 0.00 0.00
5:53 pm 17:53 Sunny 51 10.6 29 -1.7 43 43 ENE 10 17 30.18 1022 10 16 0.00 0.00
6:53 pm 18:53 Sunny 51 10.6 29 -1.7 43 43 NE 12 19 30.16 1022 10 16 0.00 0.00
7:53 pm 19:53 Sunny 49 9.4 29 -1.7 46 46 ENE 10 17 30.15 1021 10 16 0.00 0.00
8:53 pm 20:53 Clear 44 6.7 30 -1.1 58 58 NE 7 11 30.16 1021 10 16 0.00 0.00
9:53 pm 21:53 Clear 42 5.6 30 -1.1 62 62 NE 6 9 30.15 1021 10 16 0.00 0.00
10:53 pm 22:53 Clear 42 5.6 29 -1.7 60 60 NE 6 9 30.13 1020 10 16 0.00 0.00
11:53 pm 23:53 Clear 43 6.1 30 -1.1 60 60 NE 5 7 30.11 1020 10 16 0.00 0.00

Powered by AerisWeather